DateTimeUTC,F1_A11,F1_S11,BsB_S11,BsG_S11,BsR_S11,BbsB_S11,BbsG_S11,BbsR_S11,BaB_A11,BaG_A11,BaR_A11,Tu_S11,T_S11,Uu_S11,U_S11,P_S11,T1_A11
2021-03-01T02:00:00Z,00000200,21000000,,,,,,,0000.07,-000.29,0000.29,16.5,24.1,,00.0,0636.9,30.9
2021-03-01T02:01:00Z,00000200,21000000,,,,,,,0000.38,0000.50,-000.28,16.5,24.1,,00.0,0636.9,31.0
2021-03-01T02:02:00Z,00000200,21000000,,,,,,,-000.32,-000.08,0000.12,16.5,24.1,,00.0,0636.9,31.0
2021-03-01T02:03:00Z,00000200,61000000,,,,,,,0000.20,0000.38,0000.02,16.5,24.0,,00.0,0636.9,31.0
2021-03-01T02:04:00Z,00000200,41000000,0001.64,0000.46,0000.75,0000.19,0000.05,-000.04,0000.92,0000.77,0000.81,17.0,24.1,,00.0,0637.8,31.0
2021-03-01T02:05:00Z,00000200,01000000,0001.94,0000.60,0000.44,0000.06,0000.23,-000.06,0000.26,0000.19,0000.04,17.1,24.1,,00.0,0637.8,31.0
2021-03-01T02:06:00Z,00000200,01000000,0001.76,0000.79,0000.48,-000.10,0000.07,-000.12,0000.52,0000.52,0000.36,17.2,24.1,,00.0,0637.8,31.0
2021-03-01T02:07:00Z,00000200,01000000,0001.04,0000.67,0000.50,0000.20,-000.04,-000.15,0000.32,0000.43,0000.09,17.3,24.2,,00.0,0637.8,31.0
2021-03-01T02:08:00Z,00000200,01000000,0001.27,0000.76,0000.49,0000.54,0000.16,-000.24,0000.67,0000.35,0000.65,17.3,24.2,,00.0,0637.8,31.0
2021-03-01T02:09:00Z,00000200,01000000,0001.22,0000.97,0000.55,0000.36,0000.18,0000.42,0000.26,0000.12,0000.05,17.3,24.2,,00.0,0637.8,31.0
2021-03-01T02:10:00Z,00000200,01000000,0001.17,0000.92,0000.73,0000.74,0000.15,0000.31,0000.41,0000.64,0000.50,17.3,24.1,,00.0,0637.8,31.0
2021-03-01T02:11:00Z,00000200,01000000,0001.36,0000.82,0000.63,0000.51,0000.07,0000.29,0000.66,0000.44,0000.14,17.3,24.1,,00.0,0637.8,31.0
2021-03-01T02:12:00Z,00000200,01000000,0001.33,0000.68,0000.37,0000.28,0000.04,0000.14,0000.18,0000.19,0000.48,17.2,24.1,,00.0,0637.8,31.0
2021-03-01T02:13:00Z,00000200,01000000,0001.51,0000.93,0000.50,0000.35,0000.29,0000.06,0000.37,0000.56,0000.10,17.2,24.1,,00.0,0637.8,31.0
2021-03-01T02:14:00Z,00000200,01000000,0001.46,0000.66,0000.48,0000.36,0000.05,0000.10,0000.29,0000.10,0000.18,17.1,24.1,,00.0,0637.8,31.0
2021-03-01T02:15:00Z,00000200,01000000,0001.31,0000.80,0000.35,0000.56,0000.26,-000.02,0000.62,0000.66,0000.31,17.1,24.1,,00.0,0637.8,31.0
2021-03-01T02:16:00Z,00000200,01000000,0001.60,0000.91,0000.59,0000.66,0000.23,0000.01,0000.09,0000.30,0000.11,17.1,24.0,,00.0,0637.8,31.0
2021-03-01T02:17:00Z,00000200,01000000,0001.41,0001.23,0000.40,0000.80,0000.14,-000.10,0000.69,0000.03,0000.01,17.0,24.0,,00.0,0637.8,31.0
2021-03-01T02:18:00Z,00000200,01000000,0001.01,0000.94,0000.83,0000.33,0000.02,-000.14,0000.33,0000.37,0000.60,17.0,24.0,,00.0,0637.9,30.9
2021-03-01T02:19:00Z,00000200,01000000,0002.06,0000.82,0000.69,0000.19,0000.10,0000.13,0000.66,0000.24,0000.04,17.0,24.0,,00.0,0637.9,31.0
2021-03-01T02:20:00Z,00000200,01000000,0001.86,0000.70,0000.45,-000.24,0000.05,0000.35,0000.27,0000.61,0000.03,16.9,24.0,,00.0,0637.9,31.0
2021-03-01T02:21:00Z,00000200,01000000,0001.50,0000.91,0000.42,0000.26,0000.48,0000.07,-000.06,0000.12,0000.54,16.9,23.9,,00.0,0637.9,31.0
2021-03-01T02:22:00Z,00000200,01000000,0001.57,0000.56,0000.40,0000.35,0000.15,-000.28,0000.71,0000.87,0000.39,16.9,23.9,,00.0,0637.9,31.0
2021-03-01T02:23:00Z,00000200,01000000,0001.69,0001.16,0000.64,0000.22,0000.01,0000.14,0000.40,0000.10,-000.15,16.8,23.9,,00.0,0637.9,31.0
2021-03-01T02:24:00Z,00000200,01000000,0001.14,0000.63,0000.52,0000.36,-000.01,-000.02,0000.68,0000.07,0000.37,16.8,23.9,,00.0,0637.9,30.9
2021-03-01T02:25:00Z,00000200,01000000,0001.47,0000.69,0000.46,0000.13,0000.18,-000.04,0000.03,0000.78,0000.49,16.8,23.9,,00.0,0637.9,31.0
2021-03-01T02:26:00Z,00000200,01000000,0000.97,0000.71,0000.33,0000.37,0000.30,0000.11,0000.44,-000.02,0000.04,16.8,23.9,,00.0,0637.9,30.9
2021-03-01T02:27:00Z,00000200,01000000,0001.60,0000.90,0000.70,0000.64,0000.22,-000.03,0000.36,0000.61,0000.19,16.7,23.8,,00.0,0637.8,30.9
2021-03-01T02:28:00Z,00000200,01000000,0001.21,0000.81,0000.25,0000.61,-000.01,-000.08,0000.63,-000.01,0000.19,16.7,23.8,,00.0,0637.8,30.9
2021-03-01T02:29:00Z,00000200,01000000,0001.42,0000.85,0000.48,0000.55,0000.11,-000.14,0000.40,0000.31,0000.17,16.7,23.8,,00.0,0637.8,30.9
2021-03-01T02:30:00Z,00000200,01000000,0000.93,0000.77,0000.70,-000.01,0000.10,-000.03,0000.35,0000.38,0000.64,16.7,23.8,,00.0,0637.9,31.0
2021-03-01T02:31:00Z,00000200,01000000,0001.50,0000.78,0000.44,0000.01,0000.08,0000.13,0000.79,0000.80,0000.24,16.8,23.8,,00.0,0637.9,31.0
2021-03-01T02:32:00Z,00000200,01000000,0001.82,0000.88,0000.52,0000.04,0000.12,-000.00,-000.23,0000.21,0000.21,16.9,23.8,,00.0,0637.9,31.0
2021-03-01T02:33:00Z,00000200,01000000,0001.19,0000.76,0000.50,0000.22,0000.00,0000.01,0000.73,0000.48,0000.67,16.9,23.9,,00.0,0637.9,31.0
2021-03-01T02:34:00Z,00000200,01000000,0001.37,0000.72,0000.56,-000.12,0000.11,-000.13,0000.34,0000.30,0000.08,17.0,23.9,,00.0,0637.9,31.0
2021-03-01T02:35:00Z,00000200,01000000,0001.65,0000.58,0000.54,0000.63,0000.47,0000.25,0000.46,0000.44,0000.45,17.0,23.9,,00.0,0637.9,31.0
2021-03-01T02:36:00Z,00000200,01000000,0001.54,0000.74,0000.56,0000.19,0000.04,0000.07,0000.48,0000.60,-000.18,17.0,23.9,,00.0,0637.9,31.0
2021-03-01T02:37:00Z,00000200,01000000,0001.64,0000.77,0000.37,0000.26,0000.26,-000.22,0000.39,0000.14,0000.56,17.0,23.9,,00.0,0637.9,31.0
2021-03-01T02:38:00Z,00000200,01000000,0001.45,0000.71,0000.40,0000.65,0000.24,0000.04,0000.48,0000.40,0000.10,16.9,23.9,,00.0,0637.9,31.0
2021-03-01T02:39:00Z,00000200,01000000,0001.38,0000.88,0000.55,0000.66,0000.33,0000.02,0000.20,0000.03,0000.16,16.9,23.9,,00.0,0638.0,31.0
2021-03-01T02:40:00Z,00000200,01000000,0001.91,0000.76,0000.55,0000.38,0000.18,-000.05,0000.77,0000.75,0000.39,16.9,23.9,,00.0,0638.0,31.0
2021-03-01T02:41:00Z,00000200,01010000,0002.10,0000.98,0000.63,0000.25,0000.05,0000.24,0000.21,0000.44,0000.07,16.8,23.8,,00.0,0638.0,31.0
2021-03-01T02:42:00Z,00000200,01000000,0002.37,0000.80,0000.26,0000.18,0000.22,-000.02,0000.35,0000.18,0000.12,16.8,23.8,,00.0,0638.0,31.0
2021-03-01T02:43:00Z,00000200,01000000,0001.44,0000.71,0000.47,-000.09,0000.22,-000.09,0000.21,0000.06,-000.08,16.8,23.8,,00.0,0638.0,31.0
2021-03-01T02:44:00Z,00000200,01000000,0000.56,0000.75,0000.34,0000.41,0000.15,0000.09,0000.51,0000.51,0000.61,16.8,23.8,,00.0,0637.9,31.0
2021-03-01T02:45:00Z,00000200,01000000,0001.20,0000.90,0000.27,-000.03,0000.37,-000.09,0000.34,-000.09,0000.58,16.8,23.8,,00.0,0637.9,31.0
2021-03-01T02:46:00Z,00000200,01000000,0001.54,0000.96,0000.48,0000.40,0000.34,0000.06,0000.41,0000.78,0000.24,16.9,23.8,,00.0,0637.9,31.0
2021-03-01T02:47:00Z,00000200,01000000,0001.21,0000.99,0000.55,0000.48,0000.20,0000.07,0000.54,-000.05,0000.22,17.0,23.9,,00.0,0637.9,31.0
2021-03-01T02:48:00Z,00000200,01000000,0001.13,0000.81,0000.38,0000.34,0000.35,0000.09,0000.43,0000.88,0000.19,17.0,23.9,,00.0,0637.9,31.0
2021-03-01T02:49:00Z,00000200,01000000,0000.53,0001.23,0000.40,-000.15,0000.33,0000.16,0000.53,0000.09,0000.42,17.1,23.9,,00.0,0637.9,31.0
2021-03-01T02:50:00Z,00000200,01000000,0001.20,0000.81,0000.50,0000.41,0000.19,0000.07,0000.29,0000.35,0000.59,17.2,24.0,,00.0,0637.9,31.0
2021-03-01T02:51:00Z,00000200,01000000,0000.90,0000.93,0000.64,0000.19,0000.21,0000.21,0000.52,0000.68,-000.03,17.3,24.0,,00.0,0637.9,31.0
2021-03-01T02:52:00Z,00000200,01000000,0001.33,0000.83,0000.58,0000.27,0000.21,0000.02,0000.33,0000.09,0000.37,17.3,24.1,,00.0,0637.9,31.0
2021-03-01T02:53:00Z,00000200,01000000,0001.05,0000.95,0000.35,0000.48,0000.16,0000.02,0000.48,0000.53,0000.25,17.4,24.1,,00.0,0637.9,31.0
2021-03-01T02:54:00Z,00000200,01000000,0000.71,0000.84,0000.55,0000.22,0000.22,-000.08,0000.36,0000.78,0000.24,17.4,24.1,,00.0,0637.9,31.0
2021-03-01T02:55:00Z,00000200,01000000,0001.24,0000.65,0000.47,0000.40,0000.32,0000.06,0000.24,0000.29,0000.15,17.4,24.1,,00.0,0637.9,31.0
2021-03-01T02:56:00Z,00000200,01000000,0001.20,0000.99,0000.73,0000.55,0000.16,0000.04,0000.74,0000.29,0000.53,17.4,24.1,,00.0,0637.9,31.0
2021-03-01T02:57:00Z,00000200,41000000,,,,,,,0000.14,0000.47,0000.01,17.4,24.2,,00.0,0637.9,31.0
2021-03-01T02:58:00Z,00000200,61000000,,,,,,,-000.26,-000.47,-000.18,17.0,24.2,,00.0,0637.0,31.0
2021-03-01T02:59:00Z,00000200,21000000,,,,,,,-000.18,-000.78,-000.39,17.0,24.3,,00.0,0637.0,31.0
